This is the latest recevied weather packets stored in our database for station/object VE1UHF-4. If no packets are shown the sender has not sent any weather packets the latest 10 day(s).
| Time | Temp. | Humidity | Pressure | Rain* | Wind** | Luminosity | Snow |
|---|---|---|---|---|---|---|---|
| 1777547655 | 7.78° C | 72% | 1012.2 hPa | 0 mm | - | - | - |
| 1777544953 | 7.22° C | 70% | 1012.2 hPa | 0 mm | - | - | - |
| 1777543152 | 7.22° C | 69% | 1012 hPa | 0 mm | - | - | - |
| 1777541351 | 7.22° C | 68% | 1011.5 hPa | 0 mm | - | - | - |
| 1777540450 | 7.22° C | 69% | 1011.3 hPa | 0 mm | - | - | - |
| 1777537748 | 7.78° C | 67% | 1011.2 hPa | 0 mm | - | - | - |
| 1777536848 | 7.78° C | 67% | 1011.2 hPa | 0 mm | - | - | - |
| 1777535948 | 7.78° C | 67% | 1011.4 hPa | 0 mm | - | - | - |
| 1777534146 | 7.78° C | 66% | 1011.8 hPa | 0 mm | - | - | - |
| 1777533246 | 8.33° C | 66% | 1012 hPa | 0 mm | - | - | - |
| 1777532345 | 8.33° C | 66% | 1011.8 hPa | 0 mm | - | - | - |
| 1777530544 | 8.33° C | 65% | 1012.4 hPa | 0 mm | - | - | - |
| 1777529644 | 8.33° C | 65% | 1012.2 hPa | 0 mm | - | - | - |
| 1777528743 | 8.89° C | 65% | 1012.5 hPa | 0 mm | - | - | - |
| 1777526942 | 8.89° C | 65% | 1013 hPa | 0 mm | - | - | - |
| 1777526041 | 9.44° C | 65% | 1013.1 hPa | 0 mm | - | - | - |
| 1777523340 | 10° C | 64% | 1013.3 hPa | 0 mm | - | - | - |
| 1777522439 | 10° C | 63% | 1013.4 hPa | 0 mm | - | - | - |
| 1777521539 | 10° C | 63% | 1013.6 hPa | 0 mm | - | - | - |
| 1777519738 | 10.56° C | 63% | 1013.5 hPa | 0 mm | - | - | - |
| 1777518837 | 10.56° C | 62% | 1013.3 hPa | 0 mm | - | - | - |
| 1777517937 | 11.11° C | 62% | 1013.2 hPa | 0 mm | - | - | - |
| 1777517037 | 11.67° C | 61% | 1013.5 hPa | 0 mm | - | - | - |
| 1777516135 | 11.67° C | 61% | 1013.6 hPa | 0 mm | - | - | - |
| 1777515235 | 12.22° C | 61% | 1013.5 hPa | 0 mm | - | - | - |
* Rain since midnight (hover to see other rain measurements)
** Current wind speed in m/s (hover to see current wind gust speed)